User: anonymous   Login
Location: *
(50.3440°N, 18.6237°E)
Time: 01:32:56
(UTC+00:00)
Language:

CZ-4B R/B - Orbit

View from above orbital plane
View from above orbital plane
View from above satellite
View from above satellite

Ground track
Ground track

The orbit data is extracted from the following two-line orbital elements,

1 29093U 06015B   21060.49429056  .00004439  00000-0  82333-4 0  9996
2 29093  97.6322 246.7494 0052428 109.6789 251.0128 15.48021908826228
Epoch (UTC): 01 March 2021 11:51:46
Eccentricity: 0.0052428
inclination: 97.6322°
perigee height: 387 km
apogee height: 458 km
right ascension of ascending node: 246.7494°
argument of perigee: 109.6789°
revolutions per day: 15.48021908
mean anomaly at epoch: 251.0128°
orbit number at epoch: 82622

The dashed part of the orbit path shows where the satellite is in the earth's shadow,  

DLR